| time (UTC) | temp C | wind direction | speed KPH | gust KPH | rain 1hr cm | rain 24hr cm | rain mn cm | humidity % | barometer mb |
| 20260901154631 | 32 | 204 | 3.2 | 9.7 | 0.00 | 0.00 | 0.00 | 61 | 1010.5 |
| 20260901154126 | 32 | 219 | 4.8 | 9.7 | 0.00 | 0.00 | 0.00 | 61 | 1010.6 |
| 20260901153616 | 32 | 205 | 3.2 | 6.4 | 0.00 | 0.00 | 0.00 | 61 | 1010.5 |
| 20260901153115 | 32 | 238 | 4.8 | 6.4 | 0.00 | 0.00 | 0.00 | 62 | 1010.5 |
| 20260901152610 | 32 | 199 | 4.8 | 6.4 | 0.00 | 0.00 | 0.00 | 62 | 1010.6 |
| 20260901152109 | 32 | 196 | 1.6 | 3.2 | 0.00 | 0.00 | 0.00 | 62 | 1010.9 |
| 20260901151605 | 32 | 198 | 0.0 | 3.2 | 0.00 | 0.00 | 0.00 | 63 | 1010.6 |
| 20260901151104 | 32 | 193 | 1.6 | 3.2 | 0.00 | 0.00 | 0.00 | 63 | 1010.5 |
| 20260901150602 | 32 | 193 | 0.0 | 0.0 | 0.00 | 0.00 | 0.00 | 66 | 1010.4 |
| 20260901150055 | 32 | 207 | 4.8 | 6.4 | 0.00 | 0.00 | 0.00 | 64 | 1010.5 |
| 20260901145555 | 31 | 191 | 0.0 | 3.2 | 0.00 | 0.00 | 0.00 | 66 | 1010.6 |
| 20260901145053 | 31 | 190 | 3.2 | 4.8 | 0.00 | 0.00 | 0.00 | 66 | 1010.5 |
| 20260901144550 | 31 | 214 | 3.2 | 4.8 | 0.00 | 0.00 | 0.00 | 66 | 1010.7 |
| 20260901144044 | 31 | 185 | 4.8 | 4.8 | 0.00 | 0.00 | 0.00 | 67 | 1010.8 |
| 20260901143540 | 30 | 198 | 1.6 | 4.8 | 0.00 | 0.00 | 0.00 | 68 | 1010.6 |
| 20260901143037 | 30 | 198 | 3.2 | 4.8 | 0.00 | 0.00 | 0.00 | 69 | 1010.7 |
| 20260901142537 | 30 | 215 | 4.8 | 4.8 | 0.00 | 0.00 | 0.00 | 69 | 1010.6 |
| 20260901142032 | 30 | 213 | 3.2 | 3.2 | 0.00 | 0.00 | 0.00 | 70 | 1010.7 |
| 20260901141532 | 30 | 191 | 1.6 | 9.7 | 0.00 | 0.00 | 0.00 | 72 | 1010.8 |
| 20260901141027 | 30 | 192 | 0.0 | 3.2 | 0.00 | 0.00 | 0.00 | 73 | 1010.9 |
| 20260901140525 | 29 | 184 | 3.2 | 4.8 | 0.00 | 0.00 | 0.00 | 73 | 1010.8 |
| 20260901140021 | 29 | 190 | 0.0 | 3.2 | 0.00 | 0.00 | 0.00 | 74 | 1010.8 |
| 20260901135519 | 28 | 187 | 3.2 | 3.2 | 0.00 | 0.00 | 0.00 | 75 | 1010.7 |
| 20260901135015 | 28 | 206 | 3.2 | 6.4 | 0.00 | 0.00 | 0.00 | 76 | 1010.9 |
| 20260901134511 | 28 | 195 | 0.0 | 3.2 | 0.00 | 0.00 | 0.00 | 78 | 1010.7 |
| 20260901134006 | 28 | 191 | 0.0 | 3.2 | 0.00 | 0.00 | 0.00 | 79 | 1010.5 |
| 20260901133505 | 28 | 184 | 3.2 | 3.2 | 0.00 | 0.00 | 0.00 | 79 | 1010.7 |
| 20260901133004 | 28 | 189 | 0.0 | 0.0 | 0.00 | 0.00 | 0.00 | 81 | 1010.7 |
| 20260901132503 | 28 | 189 | 0.0 | 0.0 | 0.00 | 0.00 | 0.00 | 82 | 1010.7 |
| 20260901132002 | 27 | 190 | 0.0 | 0.0 | 0.00 | 0.00 | 0.00 | 84 | 1010.6 |
| 20260901131456 | 27 | 205 | 0.0 | 0.0 | 0.00 | 0.00 | 0.00 | 86 | 1010.7 |
| 20260901130952 | 27 | 190 | 0.0 | 0.0 | 0.00 | 0.00 | 0.00 | 88 | 1010.6 |
| 20260901130446 | 26 | 189 | 0.0 | 0.0 | 0.00 | 0.00 | 0.00 | 90 | 1010.7 |
| 20260901125944 | 25 | 195 | 0.0 | 0.0 | 0.00 | 0.00 | 0.00 | 90 | 1010.6 |
| 20260901125439 | 25 | 189 | 0.0 | 0.0 | 0.00 | 0.00 | 0.00 | 92 | 1010.5 |
| 20260901124938 | 24 | 189 | 0.0 | 0.0 | 0.00 | 0.00 | 0.00 | 94 | 1010.5 |
| 20260901124434 | 24 | 189 | 0.0 | 0.0 | 0.00 | 0.00 | 0.00 | 94 | 1010.5 |
| 20260901123929 | 23 | 187 | 0.0 | 0.0 | 0.00 | 0.00 | 0.00 | 95 | 1010.5 |
| 20260901123423 | 23 | 191 | 0.0 | 0.0 | 0.00 | 0.00 | 0.00 | 96 | 1010.4 |
| 20260901122921 | 22 | 191 | 0.0 | 0.0 | 0.00 | 0.00 | 0.00 | 96 | 1010.4 |
| 20260901122416 | 22 | 192 | 0.0 | 0.0 | 0.00 | 0.00 | 0.00 | 96 | 1010.4 |
| 20260901121915 | 22 | 192 | 0.0 | 0.0 | 0.00 | 0.00 | 0.00 | 96 | 1010.4 |
| 20260901121411 | 22 | 196 | 0.0 | 0.0 | 0.00 | 0.00 | 0.00 | 96 | 1010.3 |
| 20260901120906 | 22 | 186 | 0.0 | 0.0 | 0.00 | 0.00 | 0.00 | 96 | 1010.2 |
| 20260901120406 | 22 | 191 | 0.0 | 0.0 | 0.00 | 0.00 | 0.00 | 96 | 1010.0 |
| 20260901115901 | 22 | 192 | 0.0 | 0.0 | 0.00 | 0.00 | 0.00 | 96 | 1010.1 |
| 20260901115401 | 22 | 192 | 0.0 | 0.0 | 0.00 | 0.00 | 0.00 | 96 | 1010.2 |
| 20260901114859 | 22 | 192 | 0.0 | 0.0 | 0.00 | 0.00 | 0.00 | 96 | 1010.0 |
| 20260901114354 | 22 | 190 | 0.0 | 0.0 | 0.00 | 0.00 | 0.00 | 96 | 1010.1 |
| 20260901113853 | 22 | 190 | 0.0 | 0.0 | 0.00 | 0.00 | 0.00 | 96 | 1009.7 |
| 20260901113352 | 22 | 190 | 0.0 | 0.0 | 0.00 | 0.00 | 0.00 | 96 | 1009.7 |
| 20260901112847 | 22 | 190 | 0.0 | 0.0 | 0.00 | 0.00 | 0.00 | 96 | 1009.7 |
| 20260901112347 | 22 | 190 | 0.0 | 0.0 | 0.00 | 0.00 | 0.00 | 96 | 1009.8 |
| 20260901111842 | 22 | 188 | 0.0 | 0.0 | 0.00 | 0.00 | 0.00 | 96 | 1009.6 |
| 20260901111340 | 22 | 188 | 0.0 | 0.0 | 0.00 | 0.00 | 0.00 | 96 | 1009.7 |
| 20260901110839 | 22 | 188 | 0.0 | 0.0 | 0.00 | 0.00 | 0.00 | 96 | 1009.5 |
| 20260901110335 | 22 | 188 | 0.0 | 0.0 | 0.00 | 0.00 | 0.00 | 96 | 1009.5 |
| 20260901105831 | 22 | 188 | 0.0 | 0.0 | 0.00 | 0.00 | 0.00 | 96 | 1009.3 |
| 20260901105326 | 22 | 188 | 0.0 | 0.0 | 0.00 | 0.00 | 0.00 | 96 | 1009.4 |
| 20260901104822 | 22 | 188 | 0.0 | 0.0 | 0.00 | 0.00 | 0.00 | 96 | 1009.2 |
| 20260901104317 | 22 | 188 | 0.0 | 0.0 | 0.00 | 0.00 | 0.00 | 96 | 1009.3 |
| 20260901103813 | 22 | 188 | 0.0 | 0.0 | 0.00 | 0.00 | 0.00 | 96 | 1009.3 |
| 20260901103312 | 22 | 187 | 0.0 | 0.0 | 0.00 | 0.00 | 0.00 | 96 | 1009.3 |
| 20260901102807 | 22 | 187 | 0.0 | 0.0 | 0.00 | 0.00 | 0.00 | 96 | 1009.1 |
| 20260901102306 | 22 | 185 | 0.0 | 0.0 | 0.00 | 0.00 | 0.00 | 96 | 1009.4 |
| 20260901101758 | 22 | 185 | 0.0 | 0.0 | 0.00 | 0.00 | 0.00 | 96 | 1009.3 |
| 20260901101257 | 22 | 184 | 0.0 | 0.0 | 0.00 | 0.00 | 0.00 | 96 | 1009.3 |
| 20260901100756 | 22 | 193 | 0.0 | 0.0 | 0.00 | 0.00 | 0.00 | 96 | 1009.4 |
| 20260901100251 | 22 | 193 | 0.0 | 0.0 | 0.00 | 0.00 | 0.00 | 95 | 1009.1 |
| 20260901095749 | 22 | 193 | 0.0 | 0.0 | 0.00 | 0.00 | 0.00 | 95 | 1009.1 |
| 20260901095248 | 22 | 193 | 0.0 | 0.0 | 0.00 | 0.00 | 0.00 | 95 | 1009.2 |
| 20260901094742 | 22 | 193 | 0.0 | 0.0 | 0.00 | 0.00 | 0.00 | 95 | 1009.0 |
| 20260901094237 | 22 | 193 | 0.0 | 0.0 | 0.00 | 0.00 | 0.00 | 95 | 1009.2 |
| 20260901093732 | 22 | 193 | 0.0 | 0.0 | 0.00 | 0.00 | 0.00 | 95 | 1009.1 |
| 20260901093231 | 22 | 193 | 0.0 | 0.0 | 0.00 | 0.00 | 0.00 | 95 | 1009.0 |
| 20260901092727 | 22 | 190 | 0.0 | 0.0 | 0.00 | 0.00 | 0.00 | 95 | 1008.9 |
| 20260901092223 | 22 | 190 | 0.0 | 0.0 | 0.00 | 0.00 | 0.00 | 95 | 1009.0 |
| 20260901091718 | 22 | 190 | 0.0 | 0.0 | 0.00 | 0.00 | 0.00 | 95 | 1008.9 |
| 20260901091214 | 22 | 190 | 0.0 | 0.0 | 0.00 | 0.00 | 0.00 | 95 | 1008.9 |
| 20260901090708 | 22 | 190 | 0.0 | 0.0 | 0.00 | 0.00 | 0.00 | 95 | 1008.9 |
| 20260901090203 | 22 | 190 | 0.0 | 0.0 | 0.00 | 0.00 | 0.00 | 95 | 1009.0 |
| 20260901085659 | 22 | 190 | 0.0 | 0.0 | 0.00 | 0.00 | 0.00 | 95 | 1008.7 |
| 20260901085155 | 22 | 190 | 0.0 | 0.0 | 0.00 | 0.00 | 0.00 | 95 | 1008.9 |
| 20260901084651 | 22 | 190 | 0.0 | 0.0 | 0.00 | 0.00 | 0.00 | 95 | 1008.8 |
| 20260901084148 | 22 | 190 | 0.0 | 0.0 | 0.00 | 0.00 | 0.00 | 95 | 1008.7 |
| 20260901083647 | 22 | 190 | 0.0 | 0.0 | 0.00 | 0.00 | 0.00 | 95 | 1008.8 |
| 20260901083145 | 22 | 190 | 0.0 | 0.0 | 0.00 | 0.00 | 0.00 | 95 | 1008.8 |
| 20260901082639 | 22 | 190 | 0.0 | 0.0 | 0.00 | 0.00 | 0.00 | 94 | 1008.6 |
| 20260901082135 | 22 | 190 | 0.0 | 0.0 | 0.00 | 0.00 | 0.00 | 94 | 1008.6 |
| 20260901081630 | 22 | 190 | 0.0 | 0.0 | 0.00 | 0.00 | 0.00 | 94 | 1008.5 |
| 20260901081125 | 22 | 190 | 0.0 | 0.0 | 0.00 | 0.00 | 0.00 | 94 | 1008.5 |
| 20260901080620 | 22 | 190 | 0.0 | 0.0 | 0.00 | 0.00 | 0.00 | 94 | 1008.5 |
| 20260901080119 | 22 | 190 | 0.0 | 0.0 | 0.00 | 0.00 | 0.00 | 94 | 1008.5 |
| 20260901075614 | 22 | 190 | 0.0 | 0.0 | 0.00 | 0.00 | 0.00 | 94 | 1008.5 |
| 20260901075114 | 22 | 190 | 0.0 | 0.0 | 0.00 | 0.00 | 0.00 | 94 | 1008.6 |
| 20260901074613 | 22 | 190 | 0.0 | 0.0 | 0.00 | 0.00 | 0.00 | 94 | 1008.7 |
| 20260901074114 | 22 | 190 | 0.0 | 0.0 | 0.00 | 0.00 | 0.00 | 94 | 1008.5 |
| 20260901073610 | 22 | 190 | 0.0 | 0.0 | 0.00 | 0.00 | 0.00 | 94 | 1008.3 |
| 20260901073105 | 22 | 190 | 0.0 | 0.0 | 0.00 | 0.00 | 0.00 | 94 | 1008.5 |
| 20260901072600 | 22 | 190 | 0.0 | 0.0 | 0.00 | 0.00 | 0.00 | 93 | 1008.4 |
| 20260901072055 | 22 | 190 | 0.0 | 0.0 | 0.00 | 0.00 | 0.00 | 93 | 1008.4 |
| 20260901071555 | 22 | 190 | 0.0 | 0.0 | 0.00 | 0.00 | 0.00 | 93 | 1008.4 |
| 20260901071054 | 22 | 190 | 0.0 | 0.0 | 0.00 | 0.00 | 0.00 | 93 | 1008.5 |
| 20260901070549 | 22 | 190 | 0.0 | 0.0 | 0.00 | 0.00 | 0.00 | 93 | 1008.5 |
| 20260901070044 | 22 | 190 | 0.0 | 0.0 | 0.00 | 0.00 | 0.00 | 93 | 1008.6 |
| 20260901065538 | 23 | 187 | 0.0 | 0.0 | 0.00 | 0.00 | 0.00 | 93 | 1008.5 |
| 20260901065033 | 23 | 190 | 0.0 | 0.0 | 0.00 | 0.00 | 0.00 | 93 | 1008.7 |
| 20260901064530 | 23 | 190 | 0.0 | 0.0 | 0.00 | 0.00 | 0.00 | 92 | 1008.5 |
| 20260901064026 | 23 | 190 | 0.0 | 0.0 | 0.00 | 0.00 | 0.00 | 92 | 1008.8 |
| 20260901063518 | 23 | 190 | 0.0 | 0.0 | 0.00 | 0.00 | 0.00 | 92 | 1008.7 |
| 20260901063013 | 23 | 190 | 0.0 | 0.0 | 0.00 | 0.00 | 0.00 | 92 | 1008.6 |
| 20260901062508 | 23 | 190 | 0.0 | 0.0 | 0.00 | 0.00 | 0.00 | 92 | 1008.8 |
| 20260901061959 | 23 | 191 | 0.0 | 0.0 | 0.00 | 0.00 | 0.00 | 91 | 1008.9 |
| 20260901061455 | 23 | 190 | 0.0 | 0.0 | 0.00 | 0.00 | 0.00 | 91 | 1008.9 |
| 20260901060955 | 23 | 191 | 0.0 | 0.0 | 0.00 | 0.00 | 0.00 | 91 | 1008.8 |
| 20260901060449 | 23 | 191 | 0.0 | 0.0 | 0.00 | 0.00 | 0.00 | 91 | 1008.8 |
| 20260901055949 | 23 | 190 | 0.0 | 0.0 | 0.00 | 0.00 | 0.00 | 91 | 1008.9 |
| 20260901055446 | 24 | 189 | 0.0 | 0.0 | 0.00 | 0.00 | 0.00 | 90 | 1008.9 |
| 20260901054942 | 24 | 188 | 0.0 | 0.0 | 0.00 | 0.00 | 0.00 | 90 | 1008.9 |
| 20260901054439 | 23 | 185 | 0.0 | 0.0 | 0.00 | 0.00 | 0.00 | 91 | 1009.0 |
| 20260901053935 | 23 | 189 | 0.0 | 0.0 | 0.00 | 0.00 | 0.00 | 91 | 1008.9 |
| 20260901053430 | 23 | 191 | 0.0 | 0.0 | 0.00 | 0.00 | 0.00 | 91 | 1009.0 |
| 20260901052926 | 23 | 191 | 0.0 | 0.0 | 0.00 | 0.00 | 0.00 | 90 | 1008.8 |
| 20260901052421 | 23 | 191 | 0.0 | 0.0 | 0.00 | 0.00 | 0.00 | 91 | 1009.1 |
| 20260901051920 | 23 | 192 | 0.0 | 0.0 | 0.00 | 0.00 | 0.00 | 90 | 1009.1 |
| 20260901051415 | 23 | 192 | 0.0 | 0.0 | 0.00 | 0.00 | 0.00 | 90 | 1008.8 |
| 20260901050909 | 23 | 192 | 0.0 | 0.0 | 0.00 | 0.00 | 0.00 | 90 | 1008.9 |
| 20260901050406 | 23 | 192 | 0.0 | 0.0 | 0.00 | 0.00 | 0.00 | 90 | 1008.9 |
| 20260901045905 | 23 | 192 | 0.0 | 0.0 | 0.00 | 0.00 | 0.00 | 90 | 1008.8 |
| 20260901045359 | 23 | 192 | 0.0 | 0.0 | 0.00 | 0.00 | 0.00 | 90 | 1008.9 |
| 20260901044855 | 23 | 192 | 0.0 | 0.0 | 0.00 | 0.00 | 0.00 | 90 | 1008.9 |
| 20260901044351 | 23 | 192 | 0.0 | 0.0 | 0.00 | 0.00 | 0.00 | 89 | 1009.0 |
| 20260901043847 | 23 | 192 | 0.0 | 0.0 | 0.00 | 0.00 | 0.00 | 89 | 1009.0 |
| 20260901043343 | 24 | 192 | 0.0 | 0.0 | 0.00 | 0.00 | 0.00 | 89 | 1009.0 |
| 20260901042842 | 24 | 192 | 0.0 | 0.0 | 0.00 | 0.00 | 0.00 | 89 | 1009.0 |
| 20260901042337 | 24 | 192 | 0.0 | 0.0 | 0.00 | 0.00 | 0.00 | 88 | 1009.1 |
| 20260901041832 | 24 | 192 | 0.0 | 0.0 | 0.00 | 0.00 | 0.00 | 88 | 1008.9 |
| 20260901041328 | 24 | 192 | 0.0 | 0.0 | 0.00 | 0.00 | 0.00 | 88 | 1009.0 |
| 20260901040828 | 24 | 192 | 0.0 | 0.0 | 0.00 | 0.00 | 0.00 | 88 | 1008.9 |
| 20260901040327 | 24 | 192 | 0.0 | 0.0 | 0.00 | 0.00 | 0.00 | 88 | 1008.9 |
| 20260901035826 | 24 | 192 | 0.0 | 0.0 | 0.00 | 0.00 | 0.00 | 88 | 1008.9 |
| 20260901035326 | 24 | 192 | 0.0 | 0.0 | 0.00 | 0.00 | 0.00 | 87 | 1008.8 |
| 20260901034824 | 24 | 192 | 0.0 | 0.0 | 0.00 | 0.00 | 0.00 | 87 | 1008.8 |
| 20260901034320 | 25 | 192 | 0.0 | 0.0 | 0.00 | 0.00 | 0.00 | 87 | 1008.8 |
| 20260901033819 | 25 | 191 | 0.0 | 0.0 | 0.00 | 0.00 | 0.00 | 86 | 1008.7 |
| 20260901033319 | 25 | 191 | 0.0 | 0.0 | 0.00 | 0.00 | 0.00 | 86 | 1008.7 |
| 20260901032817 | 25 | 191 | 0.0 | 0.0 | 0.00 | 0.00 | 0.00 | 86 | 1008.8 |
| 20260901032316 | 25 | 191 | 0.0 | 0.0 | 0.00 | 0.00 | 0.00 | 86 | 1008.7 |
| 20260901031812 | 25 | 191 | 0.0 | 0.0 | 0.00 | 0.00 | 0.00 | 85 | 1008.7 |
| 20260901031308 | 25 | 191 | 0.0 | 0.0 | 0.00 | 0.00 | 0.00 | 85 | 1008.9 |
| 20260901030808 | 25 | 191 | 0.0 | 0.0 | 0.00 | 0.00 | 0.00 | 85 | 1008.6 |
| 20260901030303 | 25 | 191 | 0.0 | 0.0 | 0.00 | 0.00 | 0.00 | 84 | 1008.9 |
| 20260901025802 | 25 | 191 | 0.0 | 0.0 | 0.00 | 0.00 | 0.00 | 84 | 1008.7 |
| 20260901025257 | 25 | 191 | 0.0 | 0.0 | 0.00 | 0.00 | 0.00 | 83 | 1008.8 |
| 20260901024752 | 25 | 191 | 0.0 | 0.0 | 0.00 | 0.00 | 0.00 | 82 | 1008.6 |
| 20260901024251 | 26 | 191 | 0.0 | 0.0 | 0.00 | 0.00 | 0.00 | 82 | 1008.7 |
| 20260901023749 | 26 | 191 | 0.0 | 0.0 | 0.00 | 0.00 | 0.00 | 81 | 1008.6 |
| 20260901023244 | 26 | 191 | 0.0 | 0.0 | 0.00 | 0.00 | 0.00 | 81 | 1008.5 |
| 20260901022740 | 26 | 191 | 0.0 | 0.0 | 0.00 | 0.00 | 0.00 | 81 | 1008.6 |
| 20260901022235 | 26 | 191 | 0.0 | 0.0 | 0.00 | 0.00 | 0.00 | 81 | 1008.5 |
| 20260901021730 | 26 | 191 | 0.0 | 0.0 | 0.00 | 0.00 | 0.00 | 80 | 1008.5 |
| 20260901021226 | 26 | 191 | 0.0 | 0.0 | 0.00 | 0.00 | 0.00 | 79 | 1008.5 |
| 20260901020721 | 26 | 191 | 0.0 | 0.0 | 0.00 | 0.00 | 0.00 | 78 | 1008.4 |
| 20260901020216 | 26 | 191 | 0.0 | 0.0 | 0.00 | 0.00 | 0.00 | 77 | 1008.2 |
| 20260901015711 | 26 | 191 | 0.0 | 0.0 | 0.00 | 0.00 | 0.00 | 77 | 1008.2 |
| 20260901015207 | 27 | 191 | 0.0 | 0.0 | 0.00 | 0.00 | 0.00 | 76 | 1008.1 |
| 20260901014701 | 27 | 191 | 0.0 | 0.0 | 0.00 | 0.00 | 0.00 | 75 | 1008.2 |
| 20260901014157 | 27 | 191 | 0.0 | 0.0 | 0.00 | 0.00 | 0.00 | 73 | 1008.2 |
| 20260901013652 | 27 | 191 | 0.0 | 0.0 | 0.00 | 0.00 | 0.00 | 73 | 1007.8 |
| 20260901013149 | 27 | 191 | 0.0 | 0.0 | 0.00 | 0.00 | 0.00 | 72 | 1007.9 |
| 20260901012648 | 27 | 190 | 0.0 | 0.0 | 0.00 | 0.00 | 0.00 | 72 | 1007.9 |
| 20260901012143 | 28 | 192 | 0.0 | 0.0 | 0.00 | 0.00 | 0.00 | 70 | 1007.6 |
| 20260901011639 | 28 | 192 | 0.0 | 0.0 | 0.00 | 0.00 | 0.00 | 69 | 1007.9 |
| 20260901011138 | 28 | 192 | 0.0 | 0.0 | 0.00 | 0.00 | 0.00 | 68 | 1007.5 |
| 20260901010633 | 28 | 192 | 0.0 | 0.0 | 0.00 | 0.00 | 0.00 | 68 | 1007.6 |
| 20260901010133 | 28 | 192 | 0.0 | 0.0 | 0.00 | 0.00 | 0.00 | 68 | 1007.7 |
| 20260901005632 | 28 | 190 | 0.0 | 0.0 | 0.00 | 0.00 | 0.00 | 67 | 1007.5 |
| 20260901005128 | 29 | 190 | 0.0 | 0.0 | 0.00 | 0.00 | 0.00 | 66 | 1007.7 |
| 20260901004627 | 29 | 190 | 0.0 | 0.0 | 0.00 | 0.00 | 0.00 | 65 | 1007.5 |
| 20260901004122 | 29 | 190 | 0.0 | 0.0 | 0.00 | 0.00 | 0.00 | 65 | 1007.5 |
| 20260901003617 | 30 | 190 | 0.0 | 0.0 | 0.00 | 0.00 | 0.00 | 65 | 1007.5 |
| 20260901003116 | 30 | 197 | 0.0 | 0.0 | 0.00 | 0.00 | 0.00 | 65 | 1007.4 |
| 20260901002615 | 30 | 194 | 0.0 | 0.0 | 0.00 | 0.00 | 0.00 | 63 | 1007.5 |
| 20260901002110 | 30 | 193 | 0.0 | 0.0 | 0.00 | 0.00 | 0.00 | 63 | 1007.4 |
| 20260901001605 | 30 | 192 | 0.0 | 0.0 | 0.00 | 0.00 | 0.00 | 62 | 1007.6 |
| 20260901001100 | 30 | 192 | 0.0 | 0.0 | 0.00 | 0.00 | 0.00 | 61 | 1007.7 |
| 20260901000555 | 31 | 192 | 0.0 | 0.0 | 0.00 | 0.00 | 0.00 | 60 | 1007.5 |
| 20260901000052 | 31 | 190 | 0.0 | 0.0 | 0.00 | 0.00 | 0.00 | 59 | 1007.6 |
| 20260831235545 | 31 | 191 | 0.0 | 3.2 | 0.00 | 0.00 | 0.00 | 58 | 1007.6 |
| 20260831235041 | 32 | 192 | 0.0 | 0.0 | 0.00 | 0.00 | 0.00 | 57 | 1007.7 |
| 20260831234540 | 32 | 192 | 0.0 | 1.6 | 0.00 | 0.00 | 0.00 | 56 | 1007.5 |
| 20260831234036 | 33 | 207 | 3.2 | 4.8 | 0.00 | 0.00 | 0.00 | 53 | 1007.5 |
| 20260831233531 | 33 | 189 | 1.6 | 3.2 | 0.00 | 0.00 | 0.00 | 52 | 1007.8 |
| 20260831233027 | 33 | 206 | 3.2 | 6.4 | 0.00 | 0.00 | 0.00 | 52 | 1007.9 |
| 20260831232522 | 33 | 198 | 1.6 | 3.2 | 0.00 | 0.00 | 0.00 | 53 | 1007.9 |
| 20260831232018 | 32 | 195 | 3.2 | 4.8 | 0.00 | 0.00 | 0.00 | 53 | 1007.8 |
| 20260831231514 | 32 | 215 | 1.6 | 3.2 | 0.00 | 0.00 | 0.00 | 54 | 1007.9 |
| 20260831231009 | 33 | 193 | 0.0 | 1.6 | 0.00 | 0.00 | 0.00 | 54 | 1007.9 |
| 20260831230504 | 33 | 191 | 3.2 | 4.8 | 0.00 | 0.00 | 0.00 | 51 | 1008.0 |
| 20260831225958 | 33 | 193 | 0.0 | 3.2 | 0.00 | 0.00 | 0.00 | 51 | 1008.1 |
| 20260831225455 | 33 | 193 | 1.6 | 3.2 | 0.00 | 0.00 | 0.00 | 51 | 1007.9 |
| 20260831224949 | 33 | 230 | 1.6 | 3.2 | 0.00 | 0.00 | 0.00 | 50 | 1008.0 |
| 20260831224448 | 33 | 218 | 3.2 | 9.7 | 0.00 | 0.00 | 0.00 | 50 | 1008.0 |
| 20260831223944 | 33 | 193 | 0.0 | 1.6 | 0.00 | 0.00 | 0.00 | 50 | 1007.9 |
| 20260831223439 | 33 | 189 | 3.2 | 4.8 | 0.00 | 0.00 | 0.00 | 50 | 1008.2 |
| 20260831222936 | 34 | 190 | 1.6 | 6.4 | 0.00 | 0.00 | 0.00 | 50 | 1008.0 |
| 20260831222432 | 34 | 207 | 3.2 | 3.2 | 0.00 | 0.00 | 0.00 | 50 | 1008.0 |
| 20260831221931 | 34 | 205 | 0.0 | 6.4 | 0.00 | 0.00 | 0.00 | 49 | 1008.1 |
| 20260831221428 | 34 | 214 | 4.8 | 6.4 | 0.00 | 0.00 | 0.00 | 48 | 1008.0 |
| 20260831220923 | 35 | 228 | 4.8 | 6.4 | 0.00 | 0.00 | 0.00 | 47 | 1008.1 |
| 20260831220418 | 35 | 194 | 0.0 | 1.6 | 0.00 | 0.00 | 0.00 | 47 | 1008.2 |
| 20260831215913 | 35 | 206 | 1.6 | 4.8 | 0.00 | 0.00 | 0.00 | 46 | 1008.1 |
| 20260831215409 | 35 | 201 | 3.2 | 4.8 | 0.00 | 0.00 | 0.00 | 47 | 1008.3 |
| 20260831214905 | 35 | 197 | 1.6 | 6.4 | 0.00 | 0.00 | 0.00 | 47 | 1008.1 |
| 20260831214402 | 35 | 209 | 3.2 | 3.2 | 0.00 | 0.00 | 0.00 | 47 | 1008.3 |
| 20260831213857 | 35 | 176 | 3.2 | 4.8 | 0.00 | 0.00 | 0.00 | 47 | 1008.6 |
| 20260831213349 | 36 | 194 | 1.6 | 6.4 | 0.00 | 0.00 | 0.00 | 46 | 1008.4 |
| 20260831212843 | 35 | 201 | 1.6 | 6.4 | 0.00 | 0.00 | 0.00 | 46 | 1008.3 |
| 20260831212340 | 36 | 210 | 0.0 | 3.2 | 0.00 | 0.00 | 0.00 | 46 | 1008.3 |
| 20260831211839 | 36 | 217 | 4.8 | 4.8 | 0.00 | 0.00 | 0.00 | 46 | 1008.4 |
| 20260831211333 | 36 | 193 | 0.0 | 1.6 | 0.00 | 0.00 | 0.00 | 46 | 1008.5 |
| 20260831210833 | 36 | 195 | 0.0 | 6.4 | 0.00 | 0.00 | 0.00 | 46 | 1008.5 |
| 20260831210329 | 35 | 202 | 3.2 | 3.2 | 0.00 | 0.00 | 0.00 | 46 | 1008.4 |
| 20260831205829 | 36 | 213 | 3.2 | 6.4 | 0.00 | 0.00 | 0.00 | 46 | 1008.7 |
| 20260831205326 | 36 | 195 | 1.6 | 3.2 | 0.00 | 0.00 | 0.00 | 45 | 1008.7 |
| 20260831204825 | 36 | 204 | 1.6 | 9.7 | 0.00 | 0.00 | 0.00 | 44 | 1008.7 |
| 20260831204324 | 35 | 209 | 3.2 | 4.8 | 0.00 | 0.00 | 0.00 | 46 | 1008.7 |
| 20260831203824 | 35 | 180 | 1.6 | 4.8 | 0.00 | 0.00 | 0.00 | 45 | 1008.7 |
| 20260831203319 | 36 | 232 | 4.8 | 9.7 | 0.00 | 0.00 | 0.00 | 45 | 1008.6 |
| 20260831202817 | 35 | 200 | 0.0 | 4.8 | 0.00 | 0.00 | 0.00 | 47 | 1008.8 |
| 20260831202312 | 35 | 207 | 1.6 | 6.4 | 0.00 | 0.00 | 0.00 | 46 | 1008.6 |
| 20260831201812 | 36 | 235 | 4.8 | 6.4 | 0.00 | 0.00 | 0.00 | 44 | 1008.7 |
| 20260831201311 | 35 | 200 | 0.0 | 0.0 | 0.00 | 0.00 | 0.00 | 49 | 1008.9 |
| 20260831200807 | 34 | 194 | 0.0 | 1.6 | 0.00 | 0.00 | 0.00 | 51 | 1009.0 |
| 20260831200302 | 35 | 197 | 0.0 | 0.0 | 0.00 | 0.00 | 0.00 | 47 | 1009.1 |
| 20260831195757 | 36 | 185 | 0.0 | 1.6 | 0.00 | 0.00 | 0.00 | 45 | 1009.0 |
| 20260831195253 | 35 | 200 | 3.2 | 6.4 | 0.00 | 0.00 | 0.00 | 46 | 1009.3 |
| 20260831194747 | 36 | 223 | 4.8 | 6.4 | 0.00 | 0.00 | 0.00 | 46 | 1009.3 |
| 20260831194243 | 35 | 205 | 3.2 | 6.4 | 0.00 | 0.00 | 0.00 | 45 | 1009.2 |
| 20260831193736 | 35 | 204 | 3.2 | 9.7 | 0.00 | 0.00 | 0.00 | 46 | 1009.4 |
| 20260831193232 | 35 | 201 | 6.4 | 9.7 | 0.00 | 0.00 | 0.00 | 46 | 1009.3 |
| 20260831192728 | 35 | 191 | 3.2 | 11.3 | 0.00 | 0.00 | 0.00 | 47 | 1009.5 |
| 20260831192223 | 35 | 240 | 4.8 | 11.3 | 0.00 | 0.00 | 0.00 | 47 | 1009.4 |
| 20260831191719 | 35 | 215 | 3.2 | 9.7 | 0.00 | 0.00 | 0.00 | 48 | 1009.5 |
| 20260831191215 | 35 | 200 | 3.2 | 3.2 | 0.00 | 0.00 | 0.00 | 48 | 1009.4 |
| 20260831190710 | 35 | 197 | 1.6 | 4.8 | 0.00 | 0.00 | 0.00 | 48 | 1009.4 |
| 20260831190209 | 35 | 196 | 3.2 | 4.8 | 0.00 | 0.00 | 0.00 | 49 | 1009.6 |
| 20260831185704 | 35 | 186 | 4.8 | 6.4 | 0.00 | 0.00 | 0.00 | 48 | 1009.8 |
| 20260831185200 | 35 | 214 | 4.8 | 6.4 | 0.00 | 0.00 | 0.00 | 49 | 1009.7 |
| 20260831184659 | 35 | 182 | 4.8 | 11.3 | 0.00 | 0.00 | 0.00 | 50 | 1009.6 |
| 20260831184155 | 35 | 192 | 4.8 | 12.9 | 0.00 | 0.00 | 0.00 | 49 | 1009.6 |
| 20260831183654 | 34 | 211 | 3.2 | 6.4 | 0.00 | 0.00 | 0.00 | 50 | 1009.8 |
| 20260831183153 | 35 | 169 | 6.4 | 9.7 | 0.00 | 0.00 | 0.00 | 51 | 1009.8 |
| 20260831182652 | 35 | 208 | 3.2 | 6.4 | 0.00 | 0.00 | 0.00 | 51 | 1010.0 |
| 20260831182148 | 34 | 199 | 3.2 | 6.4 | 0.00 | 0.00 | 0.00 | 53 | 1010.0 |
| 20260831181643 | 34 | 198 | 3.2 | 6.4 | 0.00 | 0.00 | 0.00 | 54 | 1010.0 |
| 20260831181137 | 33 | 197 | 4.8 | 6.4 | 0.00 | 0.00 | 0.00 | 53 | 1009.9 |
| 20260831180633 | 34 | 190 | 0.0 | 4.8 | 0.00 | 0.00 | 0.00 | 54 | 1010.1 |
| 20260831180127 | 33 | 193 | 0.0 | 3.2 | 0.00 | 0.00 | 0.00 | 53 | 1010.2 |
| 20260831175622 | 34 | 202 | 3.2 | 4.8 | 0.00 | 0.00 | 0.00 | 51 | 1010.2 |
| 20260831175120 | 34 | 210 | 1.6 | 4.8 | 0.00 | 0.00 | 0.00 | 52 | 1010.2 |
| 20260831174620 | 33 | 191 | 1.6 | 6.4 | 0.00 | 0.00 | 0.00 | 52 | 1010.3 |
| 20260831174119 | 33 | 212 | 3.2 | 9.7 | 0.00 | 0.00 | 0.00 | 53 | 1010.4 |
| 20260831173618 | 33 | 212 | 6.4 | 11.3 | 0.00 | 0.00 | 0.00 | 54 | 1010.5 |
| 20260831173115 | 33 | 145 | 1.6 | 1.6 | 0.00 | 0.00 | 0.00 | 56 | 1010.5 |
| 20260831172614 | 34 | 177 | 11.3 | 12.9 | 0.00 | 0.00 | 0.00 | 54 | 1010.5 |
| 20260831172114 | 34 | 195 | 0.0 | 1.6 | 0.00 | 0.00 | 0.00 | 55 | 1010.4 |
| 20260831171610 | 34 | 216 | 4.8 | 6.4 | 0.00 | 0.00 | 0.00 | 54 | 1010.4 |
| 20260831171107 | 33 | 203 | 6.4 | 9.7 | 0.00 | 0.00 | 0.00 | 55 | 1010.7 |
| 20260831170604 | 33 | 187 | 4.8 | 6.4 | 0.00 | 0.00 | 0.00 | 55 | 1010.7 |
| 20260831170101 | 33 | 192 | 3.2 | 11.3 | 0.00 | 0.00 | 0.00 | 55 | 1010.7 |
| 20260831165601 | 33 | 195 | 1.6 | 6.4 | 0.00 | 0.00 | 0.00 | 55 | 1010.9 |
| 20260831165057 | 33 | 193 | 3.2 | 4.8 | 0.00 | 0.00 | 0.00 | 56 | 1011.0 |
| 20260831164553 | 33 | 195 | 3.2 | 6.4 | 0.00 | 0.00 | 0.00 | 55 | 1011.0 |
| 20260831164049 | 33 | 226 | 1.6 | 11.3 | 0.00 | 0.00 | 0.00 | 57 | 1011.0 |
| 20260831163543 | 32 | 188 | 0.0 | 3.2 | 0.00 | 0.00 | 0.00 | 58 | 1011.1 |
| 20260831163039 | 33 | 194 | 8.0 | 12.9 | 0.00 | 0.00 | 0.00 | 56 | 1011.2 |
| 20260831162538 | 32 | 197 | 0.0 | 3.2 | 0.00 | 0.00 | 0.00 | 61 | 1011.1 |
| 20260831162036 | 32 | 233 | 6.4 | 6.4 | 0.00 | 0.00 | 0.00 | 60 | 1011.0 |
| 20260831161532 | 32 | 192 | 6.4 | 11.3 | 0.00 | 0.00 | 0.00 | 60 | 1011.2 |
| 20260831161029 | 32 | 200 | 6.4 | 9.7 | 0.00 | 0.00 | 0.00 | 60 | 1011.1 |
| 20260831160527 | 32 | 225 | 6.4 | 9.7 | 0.00 | 0.00 | 0.00 | 61 | 1011.1 |
| 20260831160023 | 32 | 190 | 1.6 | 6.4 | 0.00 | 0.00 | 0.00 | 60 | 1011.0 |
| 20260831155517 | 32 | 197 | 0.0 | 4.8 | 0.00 | 0.00 | 0.00 | 63 | 1011.1 |